Change the Weather History Date:

Wednesday, November 28, 2012

  Actual Average Record
Temperature  
Mean Temperature 38 °F -  
Max Temperature 53 °F 59 °F 77 °F (1949)
Min Temperature 24 °F 37 °F 15 °F (1938)
Degree Days  
Heating Degree Days 26    
Moisture  
Dew Point 27 °F    
Average Humidity 76    
Maximum Humidity 100    
Minimum Humidity 33    
Precipitation  
Precipitation 0.00 in - - ()
Sea Level Pressure  
Sea Level Pressure 30.42 in    
Wind  
Wind Speed 1 mph (NNE)    
Max Wind Speed 7 mph    
Max Gust Speed -    
Visibility 8 miles    
Events      
Averages and records for this station are not official NWS values.
T = Trace of Precipitation, MM = Missing Value Source: NWS Daily Summary

Daily Weather History Graph

Daily Weather History Graph

Search for Another Location

Airport or City:

Trip Planner

Search our weather history database for the weather conditions in past years. The results will help you decide how hot, cold, wet, or windy it might be!

Date:

Astronomy

Nov. 28, 2012 Rise Set
Actual Time 6:44 AM CST 4:48 PM CST
Civil Twilight 6:16 AM CST 5:15 PM CST
Nautical Twilight 5:45 AM CST 5:46 PM CST
Astronomical Twilight 5:15 AM CST 6:16 PM CST
Moon 5:03 PM CST (11/28) 6:41 AM CST (11/28)
Length of Visible Light 10h 59m
Length of Day
10h 04m
Full, 100% of the Moon is Illuminated
Nov 28
Full
Dec 6
Last Quarter
Dec 13
New
Dec 19
First Quarter
Dec 28
Full

Hourly Weather History & Observations

Time (CST) Temp. Windchill Dew Point Humidity Pressure Visibility Wind Dir Wind Speed Gust Speed Precip Events Conditions
12:15 AM 26.6 °F - 24.8 °F 93% 30.39 in 5.0 mi Calm Calm - N/A   Clear
12:55 AM 26.6 °F - 24.8 °F 93% 30.39 in 5.0 mi Calm Calm - N/A   Clear
1:15 AM 26.6 °F - 24.8 °F 93% 30.39 in 5.0 mi Calm Calm - N/A   Clear
1:35 AM 26.6 °F - 24.8 °F 93% 30.39 in 5.0 mi Calm Calm - N/A   Clear
1:55 AM 24.8 °F - 24.8 °F 100% 30.40 in 5.0 mi Calm Calm - N/A   Clear
2:15 AM 24.8 °F - 24.8 °F 100% 30.40 in 5.0 mi Calm Calm - N/A   Clear
2:35 AM 24.8 °F - 24.8 °F 100% 30.40 in 5.0 mi Calm Calm - N/A   Clear
2:55 AM 24.8 °F - 24.8 °F 100% 30.40 in 6.0 mi Calm Calm - N/A   Clear
3:15 AM 24.8 °F - 23.0 °F 93% 30.40 in 6.0 mi Calm Calm - N/A   Clear
3:35 AM 24.8 °F - 24.8 °F 100% 30.40 in 5.0 mi Calm Calm - N/A   Clear
3:55 AM 24.8 °F - 24.8 °F 100% 30.40 in 5.0 mi Calm Calm - N/A   Clear
4:15 AM 24.8 °F - 24.8 °F 100% 30.41 in 7.0 mi Calm Calm - N/A   Clear
4:55 AM 24.8 °F - 24.8 °F 100% 30.42 in 6.0 mi Calm Calm - N/A   Clear
5:15 AM 24.8 °F - 24.8 °F 100% 30.42 in 5.0 mi North - - N/A   Clear
5:35 AM 24.8 °F - 24.8 °F 100% 30.43 in 5.0 mi Calm Calm - N/A   Clear
5:55 AM 24.8 °F - 24.8 °F 100% 30.43 in 5.0 mi Calm Calm - N/A   Clear
6:15 AM 24.8 °F - 23.0 °F 93% 30.43 in 5.0 mi Calm Calm - N/A   Clear
6:35 AM 24.8 °F - 23.0 °F 93% 30.45 in 5.0 mi Calm Calm - N/A   Clear
6:55 AM 24.8 °F - 23.0 °F 93% 30.45 in 3.0 mi Calm Calm - N/A   Clear
7:15 AM 26.6 °F - 24.8 °F 93% 30.46 in 4.0 mi Calm Calm - N/A   Clear
7:35 AM 26.6 °F - 24.8 °F 93% 30.47 in 5.0 mi Calm Calm - N/A   Clear
7:55 AM 28.4 °F - 26.6 °F 93% 30.47 in 4.0 mi Calm Calm - N/A   Clear
8:15 AM 32.0 °F - 30.2 °F 93% 30.47 in 4.0 mi Calm Calm - N/A   Clear
8:35 AM 33.8 °F - 32.0 °F 93% 30.48 in 4.0 mi Calm Calm - N/A   Clear
8:55 AM 37.4 °F - 33.8 °F 87% 30.49 in 5.0 mi Calm Calm - N/A   Clear
9:15 AM 39.2 °F - 33.8 °F 81% 30.49 in 7.0 mi Calm Calm - N/A   Clear
9:35 AM 41.0 °F 39.0 °F 33.8 °F 76% 30.50 in 6.0 mi NE 3.5 mph - N/A   Haze
9:55 AM 42.8 °F 41.1 °F 32.0 °F 66% 30.51 in 7.0 mi NE 3.5 mph - N/A   Clear
10:15 AM 44.6 °F 43.1 °F 32.0 °F 61% 30.51 in 7.0 mi East 3.5 mph - N/A   Clear
10:35 AM 44.6 °F - 32.0 °F 61% 30.50 in 8.0 mi Calm Calm - N/A   Clear
10:55 AM 46.4 °F 44.3 °F 32.0 °F 57% 30.49 in 8.0 mi North 4.6 mph - N/A   Clear
11:15 AM 48.2 °F - 28.4 °F 46% 30.48 in 9.0 mi NNE 3.5 mph - N/A   Clear
11:35 AM 48.2 °F - 26.6 °F 43% 30.47 in 9.0 mi NNE 6.9 mph - N/A   Clear
11:55 AM 48.2 °F - 26.6 °F 43% 30.46 in 9.0 mi NNE 5.8 mph - N/A   Clear
12:15 PM 50.0 °F - 26.6 °F 40% 30.45 in 9.0 mi North 3.5 mph - N/A   Clear
12:35 PM 50.0 °F - 26.6 °F 40% 30.44 in 9.0 mi NNE 5.8 mph - N/A   Clear
12:55 PM 50.0 °F - 24.8 °F 37% 30.44 in 9.0 mi Calm Calm - N/A   Clear
1:15 PM 51.8 °F - 24.8 °F 35% 30.43 in 10.0 mi North 3.5 mph - N/A   Clear
1:35 PM 50.0 °F - 24.8 °F 37% 30.42 in 9.0 mi Calm Calm - N/A   Clear
1:55 PM 51.8 °F - 26.6 °F 38% 30.41 in 10.0 mi Calm Calm - N/A   Clear
2:15 PM 53.6 °F - 24.8 °F 33% 30.41 in 9.0 mi NE 3.5 mph - N/A   Clear
2:55 PM 53.6 °F - 24.8 °F 33% 30.40 in 9.0 mi NE 4.6 mph - N/A   Clear
3:15 PM 53.6 °F - 24.8 °F 33% 30.40 in 9.0 mi Calm Calm - N/A   Clear
3:35 PM 53.6 °F - 26.6 °F 35% 30.40 in 9.0 mi Calm Calm - N/A   Clear
3:55 PM 51.8 °F - 26.6 °F 38% 30.40 in 9.0 mi Calm Calm - N/A   Clear
4:15 PM 50.0 °F - 26.6 °F 40% 30.40 in 10.0 mi Calm Calm - N/A   Clear
4:35 PM 50.0 °F - 26.6 °F 40% 30.40 in 9.0 mi Calm Calm - N/A   Clear
4:55 PM 44.6 °F - 32.0 °F 61% 30.40 in 9.0 mi Calm Calm - N/A   Clear
5:15 PM 41.0 °F - 32.0 °F 70% 30.40 in 10.0 mi Calm Calm - N/A   Clear
5:35 PM 39.2 °F - 32.0 °F 75% 30.40 in 10.0 mi Calm Calm - N/A   Clear
5:55 PM 39.2 °F - 32.0 °F 75% 30.40 in 10.0 mi Calm Calm - N/A   Clear
6:15 PM 37.4 °F - 32.0 °F 81% 30.41 in 10.0 mi Calm Calm - N/A   Clear
6:35 PM 35.6 °F - 32.0 °F 87% 30.41 in 10.0 mi Calm Calm - N/A   Clear
6:55 PM 35.6 °F - 32.0 °F 87% 30.41 in 10.0 mi Calm Calm - N/A   Clear
7:15 PM 33.8 °F - 30.2 °F 87% 30.41 in 10.0 mi Calm Calm - N/A   Clear
7:35 PM 32.0 °F - 30.2 °F 93% 30.41 in 10.0 mi Calm Calm - N/A   Clear
7:55 PM 32.0 °F - 28.4 °F 87% 30.40 in 10.0 mi Calm Calm - N/A   Clear
8:15 PM 32.0 °F - 28.4 °F 87% 30.40 in 10.0 mi Calm Calm - N/A   Clear
8:35 PM 32.0 °F - 28.4 °F 87% 30.40 in 10.0 mi Calm Calm - N/A   Clear
8:55 PM 32.0 °F - 28.4 °F 87% 30.40 in 10.0 mi Calm Calm - N/A   Clear
9:15 PM 32.0 °F - 28.4 °F 87% 30.40 in 10.0 mi Calm Calm - N/A   Clear
9:35 PM 32.0 °F - 28.4 °F 87% 30.40 in 9.0 mi Calm Calm - N/A   Clear
9:55 PM 30.2 °F - 26.6 °F 86% 30.39 in 9.0 mi Calm Calm - N/A   Clear
10:15 PM 30.2 °F - 26.6 °F 86% 30.39 in 10.0 mi Calm Calm - N/A   Clear
10:35 PM 30.2 °F - 26.6 °F 86% 30.39 in 10.0 mi Calm Calm - N/A   Clear
10:55 PM 28.4 °F - 26.6 °F 93% 30.39 in 10.0 mi Calm Calm - N/A   Clear
11:15 PM 28.4 °F - 26.6 °F 93% 30.39 in 10.0 mi Calm Calm - N/A   Clear
11:35 PM 28.4 °F - 26.6 °F 93% 30.39 in 10.0 mi Calm Calm - N/A   Clear
11:55 PM 28.4 °F - 26.6 °F 93% 30.38 in 9.0 mi Calm Calm - N/A   Clear